Change the Weather History Date:

Saturday, July 27, 2013

  Actual Average (KHOB) Record (KHOB)
Temperature  
Mean Temperature 77 °F -  
Max Temperature 90 °F 93 °F 105 °F (1954)
Min Temperature 64 °F 67 °F 60 °F (2010)
Cooling Degree Days 12    
Growing Degree Days 27 (Base 50)    
Moisture  
Dew Point 54 °F    
Average Humidity 50    
Maximum Humidity 85    
Minimum Humidity 20    
Precipitation  
Precipitation 0.00 in - - ()
Sea Level Pressure  
Sea Level Pressure 30.15 in    
Wind  
Wind Speed 6 mph (East)    
Max Wind Speed 13 mph    
Max Gust Speed 17 mph    
Visibility 10 miles    
Events      
Averages and records for this station are not official NWS values.
T = Trace of Precipitation, MM = Missing Value Source: NWS Daily Summary

Daily Weather History Graph

Daily Weather History Graph

Search for Another Location

Airport or City:

Trip Planner

Search our weather history database for the weather conditions in past years. The results will help you decide how hot, cold, wet, or windy it might be!

Date:

Astronomy

Jul. 27, 2013 Rise Set
Actual Time 7:01 AM CDT 8:52 PM CDT
Civil Twilight 6:34 AM CDT 9:19 PM CDT
Nautical Twilight 6:01 AM CDT 9:52 PM CDT
Astronomical Twilight 5:26 AM CDT 10:27 PM CDT
Moon No Moon Rise 12:21 PM CDT (7/27)
Length of Visible Light 14h 45m
Length of Day
13h 50m
Waning Gibbous, 70% of the Moon is Illuminated
Jul 27
Waning Gibbous
Jul 29
Last Quarter
Aug 6
New
Aug 14
First Quarter
Aug 20
Full

Hourly Weather History & Observations

Time (CDT) Temp. Heat Index Dew Point Humidity Pressure Visibility Wind Dir Wind Speed Gust Speed Precip Events Conditions
12:15 AM 74.3 °F - 60.4 °F 62% 30.21 in 10.0 mi ENE 6.9 mph - N/A   Clear
12:35 AM 74.7 °F - 60.8 °F 62% 30.21 in 10.0 mi ENE 8.1 mph - N/A   Clear
12:55 AM 74.7 °F - 60.8 °F 62% 30.22 in 10.0 mi ENE 9.2 mph - N/A   Clear
1:15 AM 73.8 °F - 60.8 °F 64% 30.21 in 10.0 mi ENE 8.1 mph - N/A   Clear
1:35 AM 73.2 °F - 60.8 °F 65% 30.21 in 10.0 mi ENE 5.8 mph - N/A   Clear
1:55 AM 72.0 °F - 60.8 °F 68% 30.21 in 10.0 mi NNE 4.6 mph - N/A   Clear
2:15 AM 72.1 °F - 60.8 °F 67% 30.21 in 10.0 mi NE 4.6 mph - N/A   Clear
2:35 AM 71.8 °F - 60.8 °F 68% 30.20 in 10.0 mi NNE 5.8 mph - N/A   Clear
2:55 AM 70.7 °F - 61.0 °F 71% 30.20 in 10.0 mi NNE 5.8 mph - N/A   Clear
3:15 AM 70.5 °F - 61.0 °F 72% 30.19 in 10.0 mi NNE 5.8 mph - N/A   Clear
3:35 AM 69.8 °F - 60.8 °F 73% 30.19 in 10.0 mi NE 4.6 mph - N/A   Clear
3:55 AM 68.9 °F - 60.8 °F 75% 30.18 in 10.0 mi NE 4.6 mph - N/A   Clear
4:15 AM 68.7 °F - 60.8 °F 76% 30.18 in 10.0 mi NE 4.6 mph - N/A   Clear
4:35 AM 68.2 °F - 60.4 °F 76% 30.18 in 10.0 mi NE 3.5 mph - N/A   Clear
4:55 AM 68.0 °F - 60.4 °F 77% 30.18 in 10.0 mi NE 5.8 mph - N/A   Clear
5:15 AM 67.6 °F - 60.3 °F 77% 30.20 in 10.0 mi NE 4.6 mph - N/A   Clear
5:35 AM 67.3 °F - 60.4 °F 79% 30.19 in 10.0 mi NE 3.5 mph - N/A   Clear
5:55 AM 66.4 °F - 60.1 °F 80% 30.20 in 10.0 mi ENE 3.5 mph - N/A   Clear
6:15 AM 65.7 °F - 59.9 °F 82% 30.20 in 10.0 mi ENE 4.6 mph - N/A   Clear
6:35 AM 65.3 °F - 59.9 °F 83% 30.20 in 10.0 mi NE 4.6 mph - N/A   Clear
6:55 AM 64.9 °F - 59.9 °F 84% 30.20 in 10.0 mi ENE 3.5 mph - N/A   Clear
7:15 AM 64.6 °F - 59.9 °F 85% 30.20 in 10.0 mi ENE 4.6 mph - N/A   Clear
7:35 AM 64.9 °F - 59.9 °F 84% 30.20 in 10.0 mi East 3.5 mph - N/A   Clear
7:55 AM 66.4 °F - 60.6 °F 82% 30.21 in 10.0 mi ENE 3.5 mph - N/A   Clear
8:15 AM 68.0 °F - 61.0 °F 78% 30.21 in 10.0 mi Calm Calm - N/A   Clear
8:35 AM 69.3 °F - 61.7 °F 77% 30.20 in 10.0 mi Calm Calm - N/A   Clear
8:55 AM 71.6 °F - 62.6 °F 73% 30.21 in 10.0 mi ESE 8.1 mph - N/A   Clear
9:15 AM 73.4 °F - 62.4 °F 68% 30.21 in 10.0 mi ESE 5.8 mph - N/A   Clear
9:35 AM 73.8 °F - 61.9 °F 66% 30.22 in 10.0 mi ESE 5.8 mph - N/A   Clear
9:55 AM 74.3 °F - 62.1 °F 65% 30.22 in 10.0 mi SE 3.5 mph - N/A   Clear
10:15 AM 74.8 °F - 62.1 °F 64% 30.22 in 10.0 mi SE 3.5 mph - N/A   Clear
10:35 AM 76.1 °F - 61.3 °F 60% 30.22 in 10.0 mi East 4.6 mph - N/A   Clear
10:55 AM 77.5 °F - 61.2 °F 57% 30.22 in 10.0 mi Calm Calm - N/A   Clear
11:15 AM 76.3 °F - 60.6 °F 58% 30.21 in 10.0 mi Calm Calm - N/A   Clear
11:35 AM 78.4 °F - 59.9 °F 53% 30.21 in 10.0 mi Calm Calm - N/A   Clear
11:55 AM 79.2 °F - 59.4 °F 51% 30.21 in 10.0 mi Calm Calm - N/A   Clear
12:15 PM 79.7 °F - 58.3 °F 48% 30.21 in 10.0 mi NE 4.6 mph - N/A   Clear
12:35 PM 80.1 °F 80.7 °F 58.5 °F 48% 30.20 in 10.0 mi Calm Calm - N/A   Clear
12:55 PM 81.9 °F 81.4 °F 56.1 °F 41% 30.19 in 10.0 mi SSE 4.6 mph - N/A   Clear
1:15 PM 82.8 °F 82.0 °F 55.2 °F 39% 30.18 in 10.0 mi SE 5.8 mph - N/A   Clear
1:35 PM 84.9 °F - 50.9 °F 31% 30.17 in 10.0 mi ENE 4.6 mph - N/A   Clear
1:55 PM 84.2 °F - 52.2 °F 33% 30.16 in 10.0 mi Calm Calm - N/A   Clear
2:15 PM 85.1 °F - 52.7 °F 33% 30.16 in 10.0 mi SSE 6.9 mph - N/A   Clear
2:35 PM 86.9 °F - 51.6 °F 30% 30.15 in 10.0 mi SE 4.6 mph - N/A   Clear
2:55 PM 87.3 °F - 52.2 °F 30% 30.14 in 10.0 mi Calm Calm - N/A   Clear
3:15 PM 88.9 °F - 51.4 °F 28% 30.13 in 10.0 mi ESE 4.6 mph - N/A   Clear
3:35 PM 88.7 °F - 49.1 °F 25% 30.12 in 10.0 mi East 9.2 mph - N/A   Clear
3:55 PM 88.7 °F - 47.8 °F 24% 30.10 in 7.0 mi Calm Calm - N/A   Clear
4:15 PM 89.1 °F - 46.9 °F 23% 30.10 in 10.0 mi South 3.5 mph - N/A   Clear
4:35 PM 89.6 °F - 48.2 °F 24% 30.08 in 10.0 mi ESE 4.6 mph - N/A   Clear
4:55 PM 90.0 °F - 45.3 °F 21% 30.08 in 10.0 mi SSE 6.9 mph - N/A   Clear
5:15 PM 89.6 °F - 45.9 °F 22% 30.07 in 10.0 mi SSE 8.1 mph - N/A   Clear
5:35 PM 90.5 °F - 45.0 °F 21% 30.06 in 10.0 mi ESE 11.5 mph - N/A   Clear
5:55 PM 89.8 °F - 44.1 °F 20% 30.05 in 10.0 mi ESE 12.7 mph - N/A   Clear
6:15 PM 89.8 °F - 44.6 °F 21% 30.04 in 10.0 mi SE 8.1 mph - N/A   Clear
6:35 PM 88.9 °F - 44.1 °F 21% 30.03 in 10.0 mi SE 6.9 mph - N/A   Clear
6:55 PM 88.7 °F - 45.3 °F 22% 30.03 in 10.0 mi SSE 9.2 mph 17.3 mph N/A   Clear
7:15 PM 88.2 °F - 44.4 °F 22% 30.03 in 10.0 mi SE 9.2 mph - N/A   Clear
7:35 PM 87.8 °F - 43.2 °F 21% 30.03 in 10.0 mi ESE 8.1 mph - N/A   Clear
7:55 PM 87.1 °F - 44.6 °F 23% 30.03 in 10.0 mi SE 9.2 mph - N/A   Clear
8:15 PM 86.0 °F - 44.4 °F 23% 30.03 in 7.0 mi ESE 8.1 mph - N/A   Clear
8:35 PM 84.4 °F - 44.1 °F 24% 30.04 in 10.0 mi SE 8.1 mph - N/A   Clear
8:55 PM 82.4 °F - 44.6 °F 26% 30.04 in 10.0 mi SE 6.9 mph - N/A   Clear
9:15 PM 79.7 °F - 45.1 °F 29% 30.05 in 10.0 mi SE 5.8 mph - N/A   Clear
9:35 PM 77.7 °F - 45.0 °F 31% 30.05 in 10.0 mi SE 5.8 mph - N/A   Clear
9:55 PM 76.1 °F - 44.4 °F 32% 30.06 in 10.0 mi SE 5.8 mph - N/A   Clear
10:15 PM 75.2 °F - 43.9 °F 33% 30.06 in 10.0 mi SE 5.8 mph - N/A   Clear
10:35 PM 74.8 °F - 43.7 °F 33% 30.07 in 10.0 mi SE 6.9 mph - N/A   Clear
10:55 PM 74.3 °F - 43.5 °F 33% 30.07 in 10.0 mi SE 6.9 mph - N/A   Clear
11:15 PM 73.8 °F - 43.3 °F 34% 30.08 in 10.0 mi SE 6.9 mph - N/A   Clear
11:35 PM 73.0 °F - 43.9 °F 35% 30.08 in 10.0 mi SE 8.1 mph - N/A   Clear
11:55 PM 73.6 °F - 44.6 °F 35% 30.07 in 10.0 mi SE 8.1 mph - N/A   Clear